Change the Weather History Date:

Wednesday, March 20, 2013

  Actual Average (KFSM) Record (KFSM)
Temperature  
Mean Temperature 46 °F 54 °F  
Max Temperature 57 °F 66 °F 91 °F (1907)
Min Temperature 35 °F 42 °F 14 °F (1965)
Degree Days  
Heating Degree Days 19 11  
Month to date heating degree days 278  
Since 1 July heating degree days 2951  
Cooling Degree Days 0 0  
Month to date cooling degree days 0  
Year to date cooling degree days 1  
Moisture  
Dew Point 33 °F    
Average Humidity 59    
Maximum Humidity 93    
Minimum Humidity 38    
Precipitation  
Precipitation 0.00 in 0.12 in 2.11 in (2012)
Month to date precipitation 2.39  
Year to date precipitation 7.96  
Sea Level Pressure  
Sea Level Pressure 30.24 in    
Wind  
Wind Speed 4 mph (North)    
Max Wind Speed 13 mph    
Max Gust Speed 18 mph    
Visibility 10 miles    
Events      
T = Trace of Precipitation, MM = Missing Value Source: NWS Daily Summary

Daily Weather History Graph

Daily Weather History Graph

Search for Another Location

Airport or City:

Trip Planner

Search our weather history database for the weather conditions in past years. The results will help you decide how hot, cold, wet, or windy it might be!

Date:

Astronomy

Mar. 20, 2013 Rise Set
Actual Time 7:21 AM CDT 7:30 PM CDT
Civil Twilight 6:56 AM CDT 7:55 PM CDT
Nautical Twilight 6:27 AM CDT 8:25 PM CDT
Astronomical Twilight 5:57 AM CDT 8:55 PM CDT
Moon 1:18 PM CDT (3/20) 2:49 AM CDT (3/20)
Length of Visible Light 12h 59m
Length of Day
12h 08m
First Quarter, 59% of the Moon is Illuminated
Mar 20
First Quarter
Mar 27
Full
Apr 2
Last Quarter
Apr 10
New
Apr 18
First Quarter

Hourly Weather History & Observations

Time (CDT) Temp. Windchill Dew Point Humidity Pressure Visibility Wind Dir Wind Speed Gust Speed Precip Events Conditions
12:35 AM 48.2 °F - 35.6 °F 62% 30.23 in 10.0 mi North 6.9 mph - N/A   Clear
12:55 AM 48.2 °F - 35.6 °F 62% 30.22 in 10.0 mi North 8.1 mph - N/A   Clear
1:15 AM 48.2 °F - 35.6 °F 62% 30.23 in 10.0 mi North 8.1 mph - N/A   Clear
1:35 AM 44.6 °F 40.7 °F 33.8 °F 66% 30.24 in 10.0 mi North 6.9 mph - N/A   Clear
1:55 AM 44.6 °F 41.4 °F 33.8 °F 66% 30.24 in 10.0 mi North 5.8 mph - N/A   Clear
2:15 AM 44.6 °F 41.4 °F 33.8 °F 66% 30.25 in 10.0 mi North 5.8 mph - N/A   Clear
2:35 AM 46.4 °F - 32.0 °F 57% 30.25 in 10.0 mi Calm Calm - N/A   Clear
2:55 AM 44.6 °F - 32.0 °F 61% 30.25 in 10.0 mi Calm Calm - N/A   Clear
3:15 AM 42.8 °F - 33.8 °F 70% 30.24 in 10.0 mi Calm Calm - N/A   Clear
3:35 AM 42.8 °F - 33.8 °F 70% 30.24 in 10.0 mi Calm Calm - N/A   Clear
3:55 AM 41.0 °F - 32.0 °F 70% 30.24 in 10.0 mi Calm Calm - N/A   Clear
4:15 AM 41.0 °F - 33.8 °F 76% 30.24 in 10.0 mi Calm Calm - N/A   Clear
4:35 AM 41.0 °F - 32.0 °F 70% 30.24 in 10.0 mi Calm Calm - N/A   Clear
4:55 AM 41.0 °F - 32.0 °F 70% 30.24 in 10.0 mi Calm Calm - N/A   Clear
5:15 AM 41.0 °F - 33.8 °F 76% 30.25 in 10.0 mi Calm Calm - N/A   Clear
5:35 AM 41.0 °F - 32.0 °F 70% 30.26 in 10.0 mi Calm Calm - N/A   Clear
5:55 AM 37.4 °F - 32.0 °F 81% 30.26 in 10.0 mi Calm Calm - N/A   Clear
6:15 AM 37.4 °F - 32.0 °F 81% 30.28 in 10.0 mi Calm Calm - N/A   Clear
6:35 AM 37.4 °F - 33.8 °F 87% 30.29 in 10.0 mi Calm Calm - N/A   Clear
6:55 AM 35.6 °F - 33.8 °F 93% 30.30 in 10.0 mi Calm Calm - N/A   Clear
7:15 AM 35.6 °F - 33.8 °F 93% 30.31 in 10.0 mi Calm Calm - N/A   Clear
7:35 AM 35.6 °F - 32.0 °F 87% 30.31 in 10.0 mi Calm Calm - N/A   Clear
7:55 AM 35.6 °F - 33.8 °F 93% 30.32 in 10.0 mi Calm Calm - N/A   Clear
8:15 AM 35.6 °F - 33.8 °F 93% 30.33 in 10.0 mi Calm Calm - N/A   Clear
8:35 AM 37.4 °F - 33.8 °F 87% 30.34 in 10.0 mi Calm Calm - N/A   Clear
8:55 AM 41.0 °F - 33.8 °F 76% 30.34 in 10.0 mi Calm Calm - N/A   Clear
9:15 AM 42.8 °F - 33.8 °F 70% 30.35 in 10.0 mi Calm Calm - N/A   Clear
9:35 AM 44.6 °F - 35.6 °F 71% 30.35 in 10.0 mi Calm Calm - N/A   Clear
9:55 AM 46.4 °F - 33.8 °F 62% 30.35 in 10.0 mi Calm Calm - N/A   Clear
10:15 AM 50.0 °F - 32.0 °F 50% 30.36 in 10.0 mi Calm Calm - N/A   Clear
10:35 AM 51.8 °F - 32.0 °F 47% 30.36 in 10.0 mi Calm Calm - N/A   Clear
10:55 AM 51.8 °F - 32.0 °F 47% 30.35 in 10.0 mi Calm Calm - N/A   Clear
11:15 AM 53.6 °F - 32.0 °F 44% 30.35 in 10.0 mi North 11.5 mph - N/A   Clear
11:35 AM 53.6 °F - 32.0 °F 44% 30.34 in 10.0 mi North 11.5 mph 16.1 mph N/A   Clear
11:55 AM 55.4 °F - 33.8 °F 44% 30.34 in 10.0 mi NNW 6.9 mph - N/A   Clear
12:15 PM 55.4 °F - 33.8 °F 44% 30.33 in 10.0 mi North 9.2 mph 18.4 mph N/A   Clear
12:35 PM 55.4 °F - 33.8 °F 44% 30.32 in 10.0 mi NNW 9.2 mph 17.3 mph N/A   Clear
12:55 PM 55.4 °F - 35.6 °F 47% 30.31 in 10.0 mi NNE 10.4 mph 18.4 mph N/A   Clear
1:15 PM 55.4 °F - 35.6 °F 47% 30.31 in 10.0 mi North 11.5 mph 18.4 mph N/A   Clear
1:35 PM 55.4 °F - 35.6 °F 47% 30.30 in 10.0 mi North 9.2 mph 16.1 mph N/A   Clear
1:55 PM 55.4 °F - 33.8 °F 44% 30.29 in 10.0 mi North 6.9 mph - N/A   Scattered Clouds
2:15 PM 57.2 °F - 35.6 °F 44% 30.28 in 10.0 mi WNW 4.6 mph - N/A   Scattered Clouds
2:35 PM 55.4 °F - 35.6 °F 47% 30.26 in 10.0 mi North 11.5 mph 17.3 mph N/A   Scattered Clouds
2:55 PM 55.4 °F - 35.6 °F 47% 30.25 in 10.0 mi NNE 6.9 mph - N/A   Scattered Clouds
3:15 PM 55.4 °F - 33.8 °F 44% 30.24 in 10.0 mi WNW 10.4 mph 17.3 mph N/A   Scattered Clouds
3:35 PM 57.2 °F - 33.8 °F 41% 30.23 in 10.0 mi North 8.1 mph 17.3 mph N/A   Scattered Clouds
3:55 PM 55.4 °F - 33.8 °F 44% 30.23 in 10.0 mi NW 9.2 mph 18.4 mph N/A   Scattered Clouds
4:15 PM 55.4 °F - 32.0 °F 41% 30.22 in 10.0 mi NNW 10.4 mph 16.1 mph N/A   Clear
4:35 PM 55.4 °F - 32.0 °F 41% 30.21 in 10.0 mi WNW 12.7 mph - N/A   Clear
4:55 PM 55.4 °F - 32.0 °F 41% 30.20 in 10.0 mi North 11.5 mph 16.1 mph N/A   Clear
5:15 PM 55.4 °F - 32.0 °F 41% 30.18 in 10.0 mi North 11.5 mph 18.4 mph N/A   Clear
5:35 PM 55.4 °F - 30.2 °F 38% 30.19 in 10.0 mi WNW 11.5 mph 17.3 mph N/A   Clear
5:55 PM 55.4 °F - 30.2 °F 38% 30.19 in 10.0 mi NW 10.4 mph - N/A   Clear
6:15 PM 55.4 °F - 32.0 °F 41% 30.17 in 10.0 mi NNW 9.2 mph - N/A   Clear
6:35 PM 53.6 °F - 32.0 °F 44% 30.17 in 10.0 mi NNW 8.1 mph - N/A   Clear
6:55 PM 51.8 °F - 30.2 °F 44% 30.17 in 10.0 mi NNW 5.8 mph - N/A   Clear
7:15 PM 51.8 °F - 30.2 °F 44% 30.16 in 10.0 mi NNW 4.6 mph - N/A   Clear
7:35 PM 51.8 °F - 32.0 °F 47% 30.16 in 10.0 mi Calm Calm - N/A   Clear
7:55 PM 48.2 °F - 37.4 °F 66% 30.16 in 10.0 mi Calm Calm - N/A   Clear
8:15 PM 51.8 °F - 32.0 °F 47% 30.16 in 10.0 mi Calm Calm - N/A   Clear
8:35 PM 50.0 °F - 32.0 °F 50% 30.15 in 10.0 mi NNW 3.5 mph - N/A   Clear
8:55 PM 48.2 °F - 32.0 °F 54% 30.15 in 10.0 mi NNW 5.8 mph - N/A   Clear
9:15 PM 46.4 °F 44.3 °F 30.2 °F 53% 30.14 in 10.0 mi North 4.6 mph - N/A   Clear
9:35 PM 48.2 °F - 30.2 °F 50% 30.14 in 10.0 mi North 5.8 mph - N/A   Clear
9:55 PM 46.4 °F - 32.0 °F 57% 30.15 in 10.0 mi Calm Calm - N/A   Clear
10:15 PM 48.2 °F - 30.2 °F 50% 30.15 in 10.0 mi North 5.8 mph - N/A   Clear
10:35 PM 44.6 °F 43.1 °F 28.4 °F 53% 30.15 in 10.0 mi NNE 3.5 mph - N/A   Clear
10:55 PM 44.6 °F 43.1 °F 32.0 °F 61% 30.15 in 10.0 mi East 3.5 mph - N/A   Clear
11:15 PM 44.6 °F - 32.0 °F 61% 30.15 in 10.0 mi Calm Calm - N/A   Clear
11:35 PM 42.8 °F - 32.0 °F 66% 30.14 in 10.0 mi Calm Calm - N/A   Clear
11:55 PM 42.8 °F - 32.0 °F 66% 30.13 in 10.0 mi Calm Calm - N/A   Clear